Time,TemperatureF,DewpointF,PressureIn,WindDirection,WindDirectionDegrees,WindSpeedMPH,WindSpeedGustMPH,Humidity,HourlyPrecipIn,Conditions,Clouds,dailyrainin,SolarRadiationWatts/m^2,SoftwareType,DateUTC
2013-03-24 00:00:00,35.6,24.3,29.98,NNE,30,0.0,2.0,63,0.00,,,0.00,0.00,VWS V14.01,2013-03-24 04:00:00,
2013-03-24 00:01:00,35.6,24.3,29.98,NNE,29,0.0,0.0,63,0.00,,,0.00,0.00,VWS V14.01,2013-03-24 04:01:00,
2013-03-24 00:02:00,35.6,24.3,29.98,NNE,30,0.0,1.0,63,0.00,,,0.00,0.00,VWS V14.01,2013-03-24 04:02:00,
2013-03-24 00:07:00,35.4,24.1,29.98,NNE,26,0.0,0.0,63,0.00,,,0.00,0.00,VWS V14.01,2013-03-24 04:07:00,
2013-03-24 00:12:00,35.2,24.3,29.98,NNE,26,0.0,0.0,64,0.00,,,0.00,0.00,VWS V14.01,2013-03-24 04:12:00,
2013-03-24 00:17:00,35.0,24.1,29.97,NNE,24,0.0,5.0,64,0.00,,,0.00,0.00,VWS V14.01,2013-03-24 04:17:00,
2013-03-24 00:22:00,34.8,23.9,29.97,North,360,3.0,3.0,64,0.00,,,0.00,0.00,VWS V14.01,2013-03-24 04:22:00,
2013-03-24 00:27:00,34.6,23.7,29.97,North,10,0.0,0.0,64,0.00,,,0.00,0.00,VWS V14.01,2013-03-24 04:27:00,
2013-03-24 00:32:00,34.4,23.5,29.97,North,10,0.0,0.0,64,0.00,,,0.00,0.00,VWS V14.01,2013-03-24 04:32:00,
2013-03-24 00:37:00,34.4,23.5,29.97,North,11,0.0,0.0,64,0.00,,,0.00,0.00,VWS V14.01,2013-03-24 04:37:00,
2013-03-24 00:42:00,34.3,23.4,29.97,North,11,0.0,0.0,64,0.00,,,0.00,0.00,VWS V14.01,2013-03-24 04:42:00,
2013-03-24 00:47:00,34.0,23.5,29.97,North,11,0.0,0.0,65,0.00,,,0.00,0.00,VWS V14.01,2013-03-24 04:47:00,
2013-03-24 00:53:00,33.6,23.1,29.97,North,10,0.0,0.0,65,0.00,,,0.00,0.00,VWS V14.01,2013-03-24 04:53:00,
2013-03-24 00:58:00,33.4,23.3,29.97,North,10,0.0,0.0,66,0.00,,,0.00,0.00,VWS V14.01,2013-03-24 04:58:00,
2013-03-24 01:03:00,33.2,23.1,29.97,North,10,0.0,0.0,66,0.00,,,0.00,0.00,VWS V14.01,2013-03-24 05:03:00,
2013-03-24 01:08:00,33.0,22.5,29.97,North,11,0.0,0.0,65,0.00,,,0.00,0.00,VWS V14.01,2013-03-24 05:08:00,
2013-03-24 01:13:00,32.8,22.3,29.98,North,10,0.0,0.0,65,0.00,,,0.00,0.00,VWS V14.01,2013-03-24 05:13:00,
2013-03-24 01:18:00,32.5,22.4,29.99,North,11,0.0,0.0,66,0.00,,,0.00,0.00,VWS V14.01,2013-03-24 05:18:00,
2013-03-24 01:23:00,32.1,22.4,29.98,North,11,0.0,0.0,67,0.00,,,0.00,0.00,VWS V14.01,2013-03-24 05:23:00,
2013-03-24 01:28:00,31.8,22.5,29.97,North,11,0.0,0.0,68,0.00,,,0.00,0.00,VWS V14.01,2013-03-24 05:28:00,
2013-03-24 01:33:00,31.5,22.5,29.96,North,10,0.0,0.0,69,0.00,,,0.00,0.00,VWS V14.01,2013-03-24 05:33:00,
2013-03-24 01:39:00,31.5,22.5,29.96,North,11,0.0,0.0,69,0.00,,,0.00,0.00,VWS V14.01,2013-03-24 05:39:00,
2013-03-24 01:44:00,31.4,22.4,29.96,North,11,0.0,0.0,69,0.00,,,0.00,0.00,VWS V14.01,2013-03-24 05:44:00,
2013-03-24 01:49:00,31.4,22.4,29.96,North,11,0.0,0.0,69,0.00,,,0.00,0.00,VWS V14.01,2013-03-24 05:49:00,
2013-03-24 01:54:00,31.3,22.3,29.97,North,11,0.0,0.0,69,0.00,,,0.00,0.00,VWS V14.01,2013-03-24 05:54:00,
2013-03-24 01:59:00,31.1,22.1,29.98,North,11,0.0,0.0,69,0.00,,,0.00,0.00,VWS V14.01,2013-03-24 05:59:00,
2013-03-24 02:04:00,30.9,21.9,29.98,North,11,0.0,0.0,69,0.00,,,0.00,0.00,VWS V14.01,2013-03-24 06:04:00,
2013-03-24 02:09:00,30.7,21.8,29.97,North,10,0.0,0.0,69,0.00,,,0.00,0.00,VWS V14.01,2013-03-24 06:09:00,
2013-03-24 02:14:00,30.5,21.6,29.97,North,11,0.0,0.0,69,0.00,,,0.00,0.00,VWS V14.01,2013-03-24 06:14:00,
2013-03-24 02:20:00,30.2,21.6,29.96,North,11,0.0,0.0,70,0.00,,,0.00,0.00,VWS V14.01,2013-03-24 06:20:00,
2013-03-24 02:25:00,30.0,21.4,29.97,North,10,0.0,0.0,70,0.00,,,0.00,0.00,VWS V14.01,2013-03-24 06:25:00,
2013-03-24 02:30:00,29.7,21.5,29.96,North,11,0.0,0.0,71,0.00,,,0.00,0.00,VWS V14.01,2013-03-24 06:30:00,
2013-03-24 02:35:00,29.4,21.5,29.96,North,10,0.0,0.0,72,0.00,,,0.00,0.00,VWS V14.01,2013-03-24 06:35:00,
2013-03-24 02:40:00,29.2,21.6,29.96,North,11,0.0,0.0,73,0.00,,,0.00,0.00,VWS V14.01,2013-03-24 06:40:00,
2013-03-24 02:45:00,29.1,21.5,29.96,North,11,0.0,0.0,73,0.00,,,0.00,0.00,VWS V14.01,2013-03-24 06:45:00,
2013-03-24 02:50:00,29.0,21.4,29.95,North,11,0.0,0.0,73,0.00,,,0.00,0.00,VWS V14.01,2013-03-24 06:50:00,
2013-03-24 02:55:00,29.0,21.8,29.96,North,11,0.0,0.0,74,0.00,,,0.00,0.00,VWS V14.01,2013-03-24 06:55:00,
2013-03-24 03:00:00,28.9,21.7,29.96,North,11,0.0,0.0,74,0.00,,,0.00,0.00,VWS V14.01,2013-03-24 07:00:00,
2013-03-24 03:05:00,28.8,21.9,29.96,North,11,0.0,0.0,75,0.00,,,0.00,0.00,VWS V14.01,2013-03-24 07:05:00,
2013-03-24 03:11:00,28.8,21.9,29.96,North,11,0.0,0.0,75,0.00,,,0.00,0.00,VWS V14.01,2013-03-24 07:11:00,
2013-03-24 03:16:00,28.7,21.8,29.96,North,11,0.0,0.0,75,0.00,,,0.00,0.00,VWS V14.01,2013-03-24 07:16:00,
2013-03-24 03:21:00,28.5,21.6,29.96,North,10,0.0,0.0,75,0.00,,,0.00,0.00,VWS V14.01,2013-03-24 07:21:00,
2013-03-24 03:26:00,28.3,21.4,29.96,North,11,0.0,0.0,75,0.00,,,0.00,0.00,VWS V14.01,2013-03-24 07:26:00,
2013-03-24 03:31:00,28.1,21.2,29.96,North,11,0.0,0.0,75,0.00,,,0.00,0.00,VWS V14.01,2013-03-24 07:31:00,
2013-03-24 03:36:00,27.9,21.3,29.96,North,10,0.0,0.0,76,0.00,,,0.00,0.00,VWS V14.01,2013-03-24 07:36:00,
2013-03-24 03:41:00,27.7,21.1,29.95,North,11,0.0,0.0,76,0.00,,,0.00,0.00,VWS V14.01,2013-03-24 07:41:00,
2013-03-24 03:46:00,27.5,21.2,29.96,North,11,0.0,0.0,77,0.00,,,0.00,0.00,VWS V14.01,2013-03-24 07:46:00,
2013-03-24 03:51:00,27.4,21.1,29.96,North,11,0.0,0.0,77,0.00,,,0.00,0.00,VWS V14.01,2013-03-24 07:51:00,
2013-03-24 03:56:00,27.3,21.1,29.95,North,10,0.0,0.0,77,0.00,,,0.00,0.00,VWS V14.01,2013-03-24 07:56:00,
2013-03-24 04:02:00,27.2,21.3,29.96,North,10,0.0,0.0,78,0.00,,,0.00,0.00,VWS V14.01,2013-03-24 08:02:00,
2013-03-24 04:07:00,27.0,21.1,29.96,SE,140,0.0,3.0,78,0.00,,,0.00,0.00,VWS V14.01,2013-03-24 08:07:00,
2013-03-24 04:12:00,27.0,21.4,29.97,SE,140,0.0,0.0,79,0.00,,,0.00,0.00,VWS V14.01,2013-03-24 08:12:00,
2013-03-24 04:17:00,26.9,21.6,29.97,SE,140,0.0,0.0,80,0.00,,,0.00,0.00,VWS V14.01,2013-03-24 08:17:00,
2013-03-24 04:22:00,26.9,21.9,29.97,SE,140,0.0,0.0,81,0.00,,,0.00,0.00,VWS V14.01,2013-03-24 08:22:00,
2013-03-24 04:27:00,26.9,21.9,29.97,SE,140,0.0,0.0,81,0.00,,,0.00,0.00,VWS V14.01,2013-03-24 08:27:00,
2013-03-24 04:32:00,26.8,21.8,29.97,SE,140,0.0,0.0,81,0.00,,,0.00,0.00,VWS V14.01,2013-03-24 08:32:00,
2013-03-24 04:37:00,26.8,22.0,29.97,SE,140,0.0,0.0,82,0.00,,,0.00,0.00,VWS V14.01,2013-03-24 08:37:00,
2013-03-24 04:42:00,26.8,22.0,29.98,SE,140,0.0,0.0,82,0.00,,,0.00,0.00,VWS V14.01,2013-03-24 08:42:00,
2013-03-24 04:47:00,26.9,22.1,29.98,SE,140,0.0,0.0,82,0.00,,,0.00,0.00,VWS V14.01,2013-03-24 08:47:00,
2013-03-24 04:52:00,26.9,22.1,29.98,SE,140,0.0,0.0,82,0.00,,,0.00,0.00,VWS V14.01,2013-03-24 08:52:00,
2013-03-24 04:57:00,27.0,22.2,29.98,SE,140,0.0,0.0,82,0.00,,,0.00,0.00,VWS V14.01,2013-03-24 08:57:00,
2013-03-24 05:02:00,27.0,22.2,29.98,SE,140,0.0,0.0,82,0.00,,,0.00,0.00,VWS V14.01,2013-03-24 09:02:00,
2013-03-24 05:07:00,27.0,22.2,29.99,SE,140,0.0,0.0,82,0.00,,,0.00,0.00,VWS V14.01,2013-03-24 09:07:00,
2013-03-24 05:12:00,27.0,22.2,29.99,SE,140,0.0,0.0,82,0.00,,,0.00,0.00,VWS V14.01,2013-03-24 09:12:00,
2013-03-24 05:17:00,27.0,22.2,29.98,SE,140,0.0,0.0,82,0.00,,,0.00,0.00,VWS V14.01,2013-03-24 09:17:00,
2013-03-24 05:22:00,27.0,22.2,29.98,SE,140,0.0,0.0,82,0.00,,,0.00,0.00,VWS V14.01,2013-03-24 09:22:00,
2013-03-24 05:28:00,27.0,22.2,29.98,SE,140,0.0,0.0,82,0.00,,,0.00,0.00,VWS V14.01,2013-03-24 09:28:00,
2013-03-24 05:33:00,27.0,22.2,29.98,SE,140,0.0,0.0,82,0.00,,,0.00,0.00,VWS V14.01,2013-03-24 09:33:00,
2013-03-24 05:38:00,27.1,22.4,29.97,SE,140,0.0,0.0,82,0.00,,,0.00,0.00,VWS V14.01,2013-03-24 09:38:00,
2013-03-24 05:43:00,27.1,22.4,29.97,SE,140,0.0,0.0,82,0.00,,,0.00,0.00,VWS V14.01,2013-03-24 09:43:00,
2013-03-24 05:48:00,27.1,22.4,29.97,SE,140,0.0,0.0,82,0.00,,,0.00,0.00,VWS V14.01,2013-03-24 09:48:00,
2013-03-24 05:53:00,27.1,22.4,29.97,SE,140,0.0,0.0,82,0.00,,,0.00,0.00,VWS V14.01,2013-03-24 09:53:00,
2013-03-24 05:58:00,27.1,22.4,29.97,SE,140,0.0,0.0,82,0.00,,,0.00,0.00,VWS V14.01,2013-03-24 09:58:00,
2013-03-24 06:03:00,27.1,22.4,29.96,SE,140,0.0,0.0,82,0.00,,,0.00,0.00,VWS V14.01,2013-03-24 10:03:00,
2013-03-24 06:08:00,27.1,22.4,29.96,SE,139,0.0,0.0,82,0.00,,,0.00,0.00,VWS V14.01,2013-03-24 10:08:00,
2013-03-24 06:13:00,27.2,22.7,29.95,SE,139,0.0,0.0,83,0.00,,,0.00,0.00,VWS V14.01,2013-03-24 10:13:00,
2013-03-24 06:18:00,27.2,22.7,29.96,SE,138,0.0,0.0,83,0.00,,,0.00,0.00,VWS V14.01,2013-03-24 10:18:00,
2013-03-24 06:23:00,27.2,22.7,29.96,SE,138,0.0,0.0,83,0.00,,,0.00,0.00,VWS V14.01,2013-03-24 10:23:00,
2013-03-24 06:28:00,27.2,22.7,29.95,SE,139,0.0,0.0,83,0.00,,,0.00,0.00,VWS V14.01,2013-03-24 10:28:00,
2013-03-24 06:33:00,27.2,22.7,29.96,SE,139,0.0,0.0,83,0.00,,,0.00,0.00,VWS V14.01,2013-03-24 10:33:00,
2013-03-24 06:38:00,27.3,22.8,29.96,SE,139,0.0,0.0,83,0.00,,,0.00,0.00,VWS V14.01,2013-03-24 10:38:00,
2013-03-24 06:43:00,27.3,22.8,29.96,SE,139,0.0,0.0,83,0.00,,,0.00,0.00,VWS V14.01,2013-03-24 10:43:00,
2013-03-24 06:48:00,27.3,22.8,29.96,SE,139,0.0,0.0,83,0.00,,,0.00,0.00,VWS V14.01,2013-03-24 10:48:00,
2013-03-24 06:53:00,27.3,22.8,29.96,SE,139,0.0,0.0,83,0.00,,,0.00,0.00,VWS V14.01,2013-03-24 10:53:00,
2013-03-24 06:58:00,27.2,22.7,29.96,SE,138,0.0,0.0,83,0.00,,,0.00,0.00,VWS V14.01,2013-03-24 10:58:00,
2013-03-24 07:03:00,27.2,22.7,29.96,SE,139,0.0,0.0,83,0.00,,,0.00,0.00,VWS V14.01,2013-03-24 11:03:00,
2013-03-24 07:08:00,27.2,22.7,29.96,SE,138,0.0,0.0,83,0.00,,,0.00,0.00,VWS V14.01,2013-03-24 11:08:00,
2013-03-24 07:13:00,27.1,22.6,29.97,SE,138,0.0,0.0,83,0.00,,,0.00,5.00,VWS V14.01,2013-03-24 11:13:00,
2013-03-24 07:18:00,27.1,22.6,29.97,SE,138,0.0,0.0,83,0.00,,,0.00,7.00,VWS V14.01,2013-03-24 11:18:00,
2013-03-24 07:23:00,27.1,22.6,29.97,SE,139,0.0,0.0,83,0.00,,,0.00,11.00,VWS V14.01,2013-03-24 11:23:00,
2013-03-24 07:28:00,27.1,22.6,29.97,SE,139,0.0,0.0,83,0.00,,,0.00,12.00,VWS V14.01,2013-03-24 11:28:00,
2013-03-24 07:33:00,27.1,22.6,29.96,SE,138,0.0,0.0,83,0.00,,,0.00,19.00,VWS V14.01,2013-03-24 11:33:00,
2013-03-24 07:38:00,27.0,22.5,29.96,SE,138,0.0,0.0,83,0.00,,,0.00,23.00,VWS V14.01,2013-03-24 11:38:00,
2013-03-24 07:43:00,27.0,22.5,29.97,SE,138,0.0,0.0,83,0.00,,,0.00,37.00,VWS V14.01,2013-03-24 11:43:00,
2013-03-24 07:49:00,27.0,22.5,29.96,SE,139,0.0,0.0,83,0.00,,,0.00,46.00,VWS V14.01,2013-03-24 11:49:00,
2013-03-24 07:54:00,27.0,22.5,29.97,SE,139,0.0,0.0,83,0.00,,,0.00,51.00,VWS V14.01,2013-03-24 11:54:00,
2013-03-24 07:59:00,27.0,22.5,29.97,SE,139,0.0,0.0,83,0.00,,,0.00,56.00,VWS V14.01,2013-03-24 11:59:00,
2013-03-24 08:04:00,27.0,22.8,29.97,SE,139,0.0,0.0,84,0.00,,,0.00,63.00,VWS V14.01,2013-03-24 12:04:00,
2013-03-24 08:09:00,27.1,22.9,29.97,SE,139,0.0,0.0,84,0.00,,,0.00,70.00,VWS V14.01,2013-03-24 12:09:00,
2013-03-24 08:14:00,27.3,23.1,29.97,SE,139,0.0,0.0,84,0.00,,,0.00,83.00,VWS V14.01,2013-03-24 12:14:00,
2013-03-24 08:19:00,27.5,23.6,29.96,SE,139,0.0,0.0,85,0.00,,,0.00,91.00,VWS V14.01,2013-03-24 12:19:00,
2013-03-24 08:25:00,27.8,23.6,29.96,SE,139,0.0,0.0,84,0.00,,,0.00,107.00,VWS V14.01,2013-03-24 12:25:00,
2013-03-24 08:30:00,28.0,23.8,29.96,SE,139,0.0,0.0,84,0.00,,,0.00,113.00,VWS V14.01,2013-03-24 12:30:00,
2013-03-24 08:35:00,28.3,24.1,29.96,SE,138,0.0,0.0,84,0.00,,,0.00,114.00,VWS V14.01,2013-03-24 12:35:00,
2013-03-24 08:40:00,28.6,24.1,29.96,SE,139,0.0,0.0,83,0.00,,,0.00,121.00,VWS V14.01,2013-03-24 12:40:00,
2013-03-24 08:45:00,28.8,24.3,29.95,SE,138,0.0,0.0,83,0.00,,,0.00,141.00,VWS V14.01,2013-03-24 12:45:00,
2013-03-24 08:50:00,29.1,24.6,29.95,SE,139,0.0,0.0,83,0.00,,,0.00,156.00,VWS V14.01,2013-03-24 12:50:00,
2013-03-24 08:55:00,29.8,25.0,29.95,SE,139,0.0,0.0,82,0.00,,,0.00,165.00,VWS V14.01,2013-03-24 12:55:00,
2013-03-24 09:00:00,30.5,25.4,29.95,SE,138,0.0,0.0,81,0.00,,,0.00,165.00,VWS V14.01,2013-03-24 13:00:00,
2013-03-24 09:05:00,31.1,25.4,29.95,SE,138,0.0,0.0,79,0.00,,,0.00,171.00,VWS V14.01,2013-03-24 13:05:00,
2013-03-24 09:10:00,31.6,25.2,29.94,SE,139,0.0,0.0,77,0.00,,,0.00,179.00,VWS V14.01,2013-03-24 13:10:00,
2013-03-24 09:15:00,32.1,25.4,29.94,SE,139,0.0,0.0,76,0.00,,,0.00,199.00,VWS V14.01,2013-03-24 13:15:00,
2013-03-24 09:20:00,32.5,25.5,29.93,SE,139,0.0,0.0,75,0.00,,,0.00,204.00,VWS V14.01,2013-03-24 13:20:00,
2013-03-24 09:25:00,32.9,25.2,29.93,SE,139,0.0,0.0,73,0.00,,,0.00,207.00,VWS V14.01,2013-03-24 13:25:00,
2013-03-24 09:30:00,33.3,25.6,29.93,SE,139,0.0,0.0,73,0.00,,,0.00,216.00,VWS V14.01,2013-03-24 13:30:00,
2013-03-24 09:35:00,33.5,25.1,29.93,NE,34,0.0,1.0,71,0.00,,,0.00,225.00,VWS V14.01,2013-03-24 13:35:00,
2013-03-24 09:41:00,33.8,25.4,29.93,NNE,33,0.0,0.0,71,0.00,,,0.00,243.00,VWS V14.01,2013-03-24 13:41:00,
2013-03-24 09:46:00,34.1,26.0,29.92,NNE,19,0.0,0.0,72,0.00,,,0.00,248.00,VWS V14.01,2013-03-24 13:46:00,
2013-03-24 09:51:00,34.2,25.8,29.92,North,360,0.0,3.0,71,0.00,,,0.00,244.00,VWS V14.01,2013-03-24 13:51:00,
2013-03-24 09:56:00,34.4,26.3,29.91,NNE,29,1.0,2.0,72,0.00,,,0.00,265.00,VWS V14.01,2013-03-24 13:56:00,
2013-03-24 10:01:00,34.4,26.7,29.90,North,10,5.0,6.0,73,0.00,,,0.00,290.00,VWS V14.01,2013-03-24 14:01:00,
2013-03-24 10:07:00,34.4,26.7,29.90,NE,42,2.0,3.0,73,0.00,,,0.00,294.00,VWS V14.01,2013-03-24 14:07:00,
2013-03-24 10:12:00,34.8,26.4,29.90,North,360,2.0,6.0,71,0.00,,,0.00,290.00,VWS V14.01,2013-03-24 14:12:00,
2013-03-24 10:17:00,35.2,26.8,29.89,North,5,2.0,5.0,71,0.00,,,0.00,272.00,VWS V14.01,2013-03-24 14:17:00,
2013-03-24 10:22:00,35.4,26.3,29.89,NNE,19,3.0,6.0,69,0.00,,,0.00,262.00,VWS V14.01,2013-03-24 14:22:00,
2013-03-24 10:27:00,35.7,26.5,29.88,NE,47,3.0,4.0,69,0.00,,,0.00,292.00,VWS V14.01,2013-03-24 14:27:00,
2013-03-24 10:32:00,36.0,25.8,29.89,NE,39,3.0,4.0,66,0.00,,,0.00,294.00,VWS V14.01,2013-03-24 14:32:00,
2013-03-24 10:37:00,36.2,25.6,29.89,NNE,29,0.0,3.0,65,0.00,,,0.00,301.00,VWS V14.01,2013-03-24 14:37:00,
2013-03-24 10:42:00,36.7,26.1,29.89,ENE,57,0.0,0.0,65,0.00,,,0.00,309.00,VWS V14.01,2013-03-24 14:42:00,
2013-03-24 10:47:00,37.4,27.5,29.88,North,11,0.0,2.0,67,0.00,,,0.00,302.00,VWS V14.01,2013-03-24 14:47:00,
2013-03-24 10:52:00,37.6,26.5,29.88,NNW,348,0.0,5.0,64,0.00,,,0.00,304.00,VWS V14.01,2013-03-24 14:52:00,
2013-03-24 10:58:00,37.7,25.9,29.88,North,355,0.0,5.0,62,0.00,,,0.00,309.00,VWS V14.01,2013-03-24 14:58:00,
2013-03-24 11:03:00,37.7,25.9,29.88,North,355,0.0,0.0,62,0.00,,,0.00,313.00,VWS V14.01,2013-03-24 15:03:00,
2013-03-24 11:08:00,37.9,26.1,29.88,North,355,0.0,2.0,62,0.00,,,0.00,323.00,VWS V14.01,2013-03-24 15:08:00,
2013-03-24 11:13:00,38.2,26.0,29.87,North,355,0.0,0.0,61,0.00,,,0.00,318.00,VWS V14.01,2013-03-24 15:13:00,
2013-03-24 11:18:00,38.4,26.1,29.88,North,355,0.0,0.0,61,0.00,,,0.00,301.00,VWS V14.01,2013-03-24 15:18:00,
2013-03-24 11:23:00,38.8,26.5,29.87,NNW,345,0.0,3.0,61,0.00,,,0.00,304.00,VWS V14.01,2013-03-24 15:23:00,
2013-03-24 11:28:00,38.7,25.6,29.87,NNW,331,2.0,3.0,59,0.00,,,0.00,311.00,VWS V14.01,2013-03-24 15:28:00,
2013-03-24 11:33:00,38.8,26.1,29.88,NW,326,0.0,0.0,60,0.00,,,0.00,311.00,VWS V14.01,2013-03-24 15:33:00,
2013-03-24 11:38:00,38.9,26.2,29.88,NW,326,0.0,0.0,60,0.00,,,0.00,313.00,VWS V14.01,2013-03-24 15:38:00,
2013-03-24 11:43:00,39.1,26.8,29.88,West,269,0.0,0.0,61,0.00,,,0.00,311.00,VWS V14.01,2013-03-24 15:43:00,
2013-03-24 11:48:00,39.2,25.7,29.88,SW,229,0.0,2.0,58,0.00,,,0.00,297.00,VWS V14.01,2013-03-24 15:48:00,
2013-03-24 11:54:00,39.3,25.8,29.87,SW,229,0.0,0.0,58,0.00,,,0.00,301.00,VWS V14.01,2013-03-24 15:54:00,
2013-03-24 11:59:00,39.3,26.6,29.87,SW,221,0.0,0.0,60,0.00,,,0.00,306.00,VWS V14.01,2013-03-24 15:59:00,
2013-03-24 12:04:00,39.6,26.5,29.86,SSW,209,0.0,4.0,59,0.00,,,0.00,306.00,VWS V14.01,2013-03-24 16:04:00,
2013-03-24 12:09:00,39.7,26.1,29.86,SSW,192,0.0,3.0,58,0.00,,,0.00,309.00,VWS V14.01,2013-03-24 16:09:00,
2013-03-24 12:14:00,39.7,26.1,29.86,SSW,193,0.0,0.0,58,0.00,,,0.00,304.00,VWS V14.01,2013-03-24 16:14:00,
2013-03-24 12:19:00,39.9,25.9,29.85,SSW,193,0.0,0.0,57,0.00,,,0.00,302.00,VWS V14.01,2013-03-24 16:19:00,
2013-03-24 12:24:00,39.9,25.9,29.85,South,177,4.0,5.0,57,0.00,,,0.00,316.00,VWS V14.01,2013-03-24 16:24:00,
2013-03-24 12:29:00,40.0,26.4,29.85,South,177,0.0,1.0,58,0.00,,,0.00,323.00,VWS V14.01,2013-03-24 16:29:00,
2013-03-24 12:34:00,40.1,26.5,29.84,South,184,0.0,3.0,58,0.00,,,0.00,316.00,VWS V14.01,2013-03-24 16:34:00,
2013-03-24 12:39:00,40.1,26.1,29.83,South,184,0.0,0.0,57,0.00,,,0.00,316.00,VWS V14.01,2013-03-24 16:39:00,
2013-03-24 12:44:00,40.3,25.9,29.83,South,175,0.0,2.0,56,0.00,,,0.00,323.00,VWS V14.01,2013-03-24 16:44:00,
2013-03-24 12:50:00,40.5,25.6,29.81,SE,141,0.0,7.0,55,0.00,,,0.00,334.00,VWS V14.01,2013-03-24 16:50:00,
2013-03-24 12:55:00,40.6,26.1,29.81,South,176,1.0,3.0,56,0.00,,,0.00,325.00,VWS V14.01,2013-03-24 16:55:00,
2013-03-24 13:00:00,40.7,25.8,29.81,SSE,151,0.0,5.0,55,0.00,,,0.00,323.00,VWS V14.01,2013-03-24 17:00:00,
2013-03-24 13:05:00,40.6,25.7,29.81,SE,145,2.0,6.0,55,0.00,,,0.00,334.00,VWS V14.01,2013-03-24 17:05:00,
2013-03-24 13:10:00,40.6,25.3,29.80,SE,137,3.0,5.0,54,0.00,,,0.00,332.00,VWS V14.01,2013-03-24 17:10:00,
2013-03-24 13:15:00,40.7,25.8,29.80,SSE,161,3.0,4.0,55,0.00,,,0.00,341.00,VWS V14.01,2013-03-24 17:15:00,
2013-03-24 13:20:00,40.9,26.4,29.81,South,176,3.0,6.0,56,0.00,,,0.00,316.00,VWS V14.01,2013-03-24 17:20:00,
2013-03-24 13:25:00,40.8,25.9,29.80,South,175,3.0,6.0,55,0.00,,,0.00,313.00,VWS V14.01,2013-03-24 17:25:00,
2013-03-24 13:30:00,40.7,25.8,29.79,South,181,2.0,5.0,55,0.00,,,0.00,288.00,VWS V14.01,2013-03-24 17:30:00,
2013-03-24 13:35:00,40.6,25.3,29.78,SE,138,0.0,0.0,54,0.00,,,0.00,287.00,VWS V14.01,2013-03-24 17:35:00,
2013-03-24 13:40:00,40.7,26.2,29.78,SE,144,0.0,0.0,56,0.00,,,0.00,297.00,VWS V14.01,2013-03-24 17:40:00,
2013-03-24 13:45:00,41.0,26.1,29.78,SE,127,0.0,0.0,55,0.00,,,0.00,287.00,VWS V14.01,2013-03-24 17:45:00,
2013-03-24 13:50:00,41.1,25.7,29.77,East,98,0.0,0.0,54,0.00,,,0.00,271.00,VWS V14.01,2013-03-24 17:50:00,
2013-03-24 13:55:00,41.0,25.6,29.77,SSE,156,1.0,1.0,54,0.00,,,0.00,267.00,VWS V14.01,2013-03-24 17:55:00,
2013-03-24 14:01:00,41.0,26.1,29.76,SSE,165,0.0,3.0,55,0.00,,,0.00,269.00,VWS V14.01,2013-03-24 18:01:00,
2013-03-24 14:06:00,41.0,26.1,29.75,SSE,153,3.0,4.0,55,0.00,,,0.00,267.00,VWS V14.01,2013-03-24 18:06:00,
2013-03-24 14:11:00,41.0,26.5,29.75,ESE,115,0.0,2.0,56,0.00,,,0.00,269.00,VWS V14.01,2013-03-24 18:11:00,
2013-03-24 14:16:00,41.0,25.6,29.75,ESE,110,0.0,3.0,54,0.00,,,0.00,258.00,VWS V14.01,2013-03-24 18:16:00,
2013-03-24 14:21:00,41.0,25.6,29.74,SSE,153,1.0,5.0,54,0.00,,,0.00,246.00,VWS V14.01,2013-03-24 18:21:00,
2013-03-24 14:27:00,41.0,25.6,29.74,SE,146,0.0,3.0,54,0.00,,,0.00,265.00,VWS V14.01,2013-03-24 18:27:00,
2013-03-24 14:32:00,41.0,26.5,29.74,SE,137,0.0,3.0,56,0.00,,,0.00,304.00,VWS V14.01,2013-03-24 18:32:00,
2013-03-24 14:37:00,41.1,26.2,29.73,SSE,150,2.0,5.0,55,0.00,,,0.00,336.00,VWS V14.01,2013-03-24 18:37:00,
2013-03-24 14:42:00,41.4,26.9,29.73,SE,132,1.0,5.0,56,0.00,,,0.00,292.00,VWS V14.01,2013-03-24 18:42:00,
2013-03-24 14:47:00,41.5,27.0,29.73,SSE,147,5.0,7.0,56,0.00,,,0.00,218.00,VWS V14.01,2013-03-24 18:47:00,
2013-03-24 14:52:00,41.3,25.9,29.72,SE,139,0.0,4.0,54,0.00,,,0.00,197.00,VWS V14.01,2013-03-24 18:52:00,
2013-03-24 14:58:00,41.1,26.2,29.72,SE,141,1.0,1.0,55,0.00,,,0.00,223.00,VWS V14.01,2013-03-24 18:58:00,
2013-03-24 15:03:00,41.1,26.6,29.73,South,182,1.0,4.0,56,0.00,,,0.00,230.00,VWS V14.01,2013-03-24 19:03:00,
2013-03-24 15:08:00,41.1,26.2,29.72,SSE,156,0.0,4.0,55,0.00,,,0.00,183.00,VWS V14.01,2013-03-24 19:08:00,
2013-03-24 15:13:00,40.9,26.4,29.72,SSW,198,1.0,3.0,56,0.00,,,0.00,146.00,VWS V14.01,2013-03-24 19:13:00,
2013-03-24 15:18:00,40.8,25.9,29.72,South,188,0.0,5.0,55,0.00,,,0.00,134.00,VWS V14.01,2013-03-24 19:18:00,
2013-03-24 15:23:00,40.7,26.2,29.73,South,186,0.0,5.0,56,0.00,,,0.00,127.00,VWS V14.01,2013-03-24 19:23:00,
2013-03-24 15:28:00,40.5,25.6,29.73,SSE,152,0.0,4.0,55,0.00,,,0.00,113.00,VWS V14.01,2013-03-24 19:28:00,
2013-03-24 15:33:00,40.4,25.5,29.72,SSE,154,0.0,2.0,55,0.00,,,0.00,105.00,VWS V14.01,2013-03-24 19:33:00,
2013-03-24 15:39:00,40.4,25.5,29.72,SSE,148,0.0,3.0,55,0.00,,,0.00,104.00,VWS V14.01,2013-03-24 19:39:00,
2013-03-24 15:44:00,40.3,25.4,29.72,SE,141,0.0,3.0,55,0.00,,,0.00,98.00,VWS V14.01,2013-03-24 19:44:00,
2013-03-24 15:49:00,40.3,25.9,29.72,SSE,148,0.0,2.0,56,0.00,,,0.00,91.00,VWS V14.01,2013-03-24 19:49:00,
2013-03-24 15:54:00,40.3,25.9,29.73,SSE,163,0.0,2.0,56,0.00,,,0.00,83.00,VWS V14.01,2013-03-24 19:54:00,
2013-03-24 15:59:00,40.3,25.4,29.73,South,170,0.0,2.0,55,0.00,,,0.00,79.00,VWS V14.01,2013-03-24 19:59:00,
2013-03-24 16:04:00,40.3,25.9,29.72,South,170,0.0,1.0,56,0.00,,,0.00,83.00,VWS V14.01,2013-03-24 20:04:00,
2013-03-24 16:09:00,40.3,25.4,29.72,South,169,1.0,1.0,55,0.00,,,0.00,72.00,VWS V14.01,2013-03-24 20:09:00,
2013-03-24 16:14:00,40.3,25.9,29.71,South,170,0.0,1.0,56,0.00,,,0.00,69.00,VWS V14.01,2013-03-24 20:14:00,
2013-03-24 16:19:00,40.2,25.8,29.71,South,170,0.0,0.0,56,0.00,,,0.00,65.00,VWS V14.01,2013-03-24 20:19:00,
2013-03-24 16:25:00,40.2,25.8,29.71,South,170,0.0,2.0,56,0.00,,,0.00,63.00,VWS V14.01,2013-03-24 20:25:00,
2013-03-24 16:30:00,40.2,25.3,29.71,South,169,0.0,2.0,55,0.00,,,0.00,63.00,VWS V14.01,2013-03-24 20:30:00,
2013-03-24 16:35:00,40.1,25.2,29.70,South,169,0.0,2.0,55,0.00,,,0.00,56.00,VWS V14.01,2013-03-24 20:35:00,
2013-03-24 16:40:00,40.2,25.3,29.70,South,170,0.0,0.0,55,0.00,,,0.00,51.00,VWS V14.01,2013-03-24 20:40:00,
2013-03-24 16:45:00,40.1,25.2,29.70,South,170,0.0,0.0,55,0.00,,,0.00,47.00,VWS V14.01,2013-03-24 20:45:00,
2013-03-24 16:50:00,40.1,25.2,29.70,South,170,0.0,0.0,55,0.00,,,0.00,44.00,VWS V14.01,2013-03-24 20:50:00,
2013-03-24 16:55:00,40.1,25.2,29.70,South,170,0.0,0.0,55,0.00,,,0.00,40.00,VWS V14.01,2013-03-24 20:55:00,
2013-03-24 17:00:00,40.1,25.2,29.70,South,170,0.0,0.0,55,0.00,,,0.00,42.00,VWS V14.01,2013-03-24 21:00:00,
2013-03-24 17:05:00,40.0,24.7,29.69,South,170,0.0,0.0,54,0.00,,,0.00,46.00,VWS V14.01,2013-03-24 21:05:00,
2013-03-24 17:10:00,40.0,25.1,29.69,South,169,0.0,0.0,55,0.00,,,0.00,47.00,VWS V14.01,2013-03-24 21:10:00,
2013-03-24 17:15:00,40.0,25.1,29.69,South,170,0.0,0.0,55,0.00,,,0.00,49.00,VWS V14.01,2013-03-24 21:15:00,
2013-03-24 17:20:00,40.0,25.6,29.68,South,170,0.0,0.0,56,0.00,,,0.00,44.00,VWS V14.01,2013-03-24 21:20:00,
2013-03-24 17:25:00,40.0,25.6,29.69,South,169,0.0,0.0,56,0.00,,,0.00,42.00,VWS V14.01,2013-03-24 21:25:00,
2013-03-24 17:30:00,40.0,25.6,29.68,South,170,0.0,0.0,56,0.00,,,0.00,44.00,VWS V14.01,2013-03-24 21:30:00,
2013-03-24 17:35:00,40.0,25.6,29.68,South,170,0.0,0.0,56,0.00,,,0.00,44.00,VWS V14.01,2013-03-24 21:35:00,
2013-03-24 17:40:00,40.0,25.6,29.68,South,170,0.0,0.0,56,0.00,,,0.00,44.00,VWS V14.01,2013-03-24 21:40:00,
2013-03-24 17:46:00,39.9,25.5,29.68,South,169,0.0,0.0,56,0.00,,,0.00,44.00,VWS V14.01,2013-03-24 21:46:00,
2013-03-24 17:51:00,39.9,25.9,29.68,South,169,0.0,0.0,57,0.00,,,0.00,49.00,VWS V14.01,2013-03-24 21:51:00,
2013-03-24 17:56:00,39.9,25.9,29.68,South,170,0.0,0.0,57,0.00,,,0.00,51.00,VWS V14.01,2013-03-24 21:56:00,
2013-03-24 18:01:00,39.9,25.5,29.68,South,178,0.0,0.0,56,0.00,,,0.00,46.00,VWS V14.01,2013-03-24 22:01:00,
2013-03-24 18:06:00,39.9,25.9,29.68,South,178,0.0,0.0,57,0.00,,,0.00,37.00,VWS V14.01,2013-03-24 22:06:00,
2013-03-24 18:11:00,39.9,25.9,29.68,South,178,0.0,0.0,57,0.00,,,0.00,30.00,VWS V14.01,2013-03-24 22:11:00,
2013-03-24 18:17:00,39.9,25.9,29.68,South,178,0.0,2.0,57,0.00,,,0.00,26.00,VWS V14.01,2013-03-24 22:17:00,
2013-03-24 18:22:00,39.8,25.8,29.68,South,178,0.0,1.0,57,0.00,,,0.00,25.00,VWS V14.01,2013-03-24 22:22:00,
2013-03-24 18:27:00,39.8,25.8,29.69,South,178,0.0,0.0,57,0.00,,,0.00,25.00,VWS V14.01,2013-03-24 22:27:00,
2013-03-24 18:32:00,39.8,26.2,29.68,South,178,0.0,1.0,58,0.00,,,0.00,23.00,VWS V14.01,2013-03-24 22:32:00,
2013-03-24 18:37:00,39.7,26.6,29.69,WNW,299,0.0,1.0,59,0.00,,,0.00,18.00,VWS V14.01,2013-03-24 22:37:00,
2013-03-24 18:42:00,39.6,26.5,29.69,WSW,257,0.0,0.0,59,0.00,,,0.00,18.00,VWS V14.01,2013-03-24 22:42:00,
2013-03-24 18:47:00,39.5,26.8,29.69,WSW,257,1.0,1.0,60,0.00,,,0.00,16.00,VWS V14.01,2013-03-24 22:47:00,
2013-03-24 18:52:00,39.4,27.1,29.69,NW,317,5.0,6.0,61,0.00,,,0.00,14.00,VWS V14.01,2013-03-24 22:52:00,
2013-03-24 18:57:00,39.0,27.9,29.69,NW,307,0.0,1.0,64,0.00,,,0.00,11.00,VWS V14.01,2013-03-24 22:57:00,
2013-03-24 19:02:00,38.7,28.3,29.69,SE,129,0.0,7.0,66,0.00,,,0.00,7.00,VWS V14.01,2013-03-24 23:02:00,
2013-03-24 19:07:00,38.2,28.6,29.70,SSW,196,4.0,6.0,68,0.00,,,0.00,5.00,VWS V14.01,2013-03-24 23:07:00,
2013-03-24 19:12:00,37.4,29.9,29.70,South,179,0.0,7.0,74,0.00,,,0.00,0.00,VWS V14.01,2013-03-24 23:12:00,
2013-03-24 19:17:00,36.8,30.3,29.70,SSW,205,4.0,7.0,77,0.00,,,0.00,0.00,VWS V14.01,2013-03-24 23:17:00,
2013-03-24 19:23:00,36.2,30.3,29.70,SSW,209,5.0,6.0,79,0.00,,,0.00,0.00,VWS V14.01,2013-03-24 23:23:00,
2013-03-24 19:28:00,35.7,30.5,29.70,SW,215,0.0,3.0,81,0.00,,,0.00,0.00,VWS V14.01,2013-03-24 23:28:00,
2013-03-24 19:33:00,35.3,30.4,29.70,SW,215,0.0,0.0,82,0.00,,,0.00,0.00,VWS V14.01,2013-03-24 23:33:00,
2013-03-24 19:38:00,35.0,30.4,29.70,SW,215,0.0,0.0,83,0.00,,,0.00,0.00,VWS V14.01,2013-03-24 23:38:00,
2013-03-24 19:43:00,34.7,30.4,29.70,SW,215,0.0,0.0,84,0.00,,,0.00,0.00,VWS V14.01,2013-03-24 23:43:00,
2013-03-24 19:48:00,34.4,30.4,29.69,SW,215,0.0,0.0,85,0.00,,,0.00,0.00,VWS V14.01,2013-03-24 23:48:00,
2013-03-24 19:53:00,34.4,30.4,29.69,SW,214,0.0,0.0,85,0.00,,,0.00,0.00,VWS V14.01,2013-03-24 23:53:00,
2013-03-24 19:58:00,34.3,30.6,29.70,SW,214,0.0,0.0,86,0.00,,,0.00,0.00,VWS V14.01,2013-03-24 23:58:00,
2013-03-24 20:03:00,34.1,30.4,29.69,SW,215,0.0,0.0,86,0.00,,,0.00,0.00,VWS V14.01,2013-03-25 00:03:00,
2013-03-24 20:08:00,34.0,30.5,29.69,SW,215,0.0,0.0,87,0.00,,,0.00,0.00,VWS V14.01,2013-03-25 00:08:00,
2013-03-24 20:13:00,33.9,30.5,29.69,SW,215,0.0,0.0,87,0.00,,,0.00,0.00,VWS V14.01,2013-03-25 00:13:00,
2013-03-24 20:18:00,33.7,30.5,29.69,SW,214,0.0,0.0,88,0.00,,,0.00,0.00,VWS V14.01,2013-03-25 00:18:00,
2013-03-24 20:24:00,33.6,30.4,29.69,SW,215,0.0,0.0,88,0.00,,,0.00,0.00,VWS V14.01,2013-03-25 00:24:00,
2013-03-24 20:29:00,33.5,30.3,29.69,SW,215,0.0,1.0,88,0.00,,,0.00,0.00,VWS V14.01,2013-03-25 00:29:00,
2013-03-24 20:34:00,33.4,30.5,29.69,SW,215,0.0,0.0,89,0.00,,,0.00,0.00,VWS V14.01,2013-03-25 00:34:00,
2013-03-24 20:39:00,33.4,30.5,29.69,SW,215,0.0,1.0,89,0.00,,,0.00,0.00,VWS V14.01,2013-03-25 00:39:00,
2013-03-24 20:44:00,33.3,30.4,29.68,SW,215,0.0,1.0,89,0.00,,,0.00,0.00,VWS V14.01,2013-03-25 00:44:00,
2013-03-24 20:49:00,33.3,30.7,29.68,SW,214,0.0,0.0,90,0.00,,,0.00,0.00,VWS V14.01,2013-03-25 00:49:00,
2013-03-24 20:54:00,33.2,30.6,29.68,SW,215,0.0,0.0,90,0.00,,,0.00,0.00,VWS V14.01,2013-03-25 00:54:00,
2013-03-24 20:59:00,33.2,30.6,29.68,SW,232,0.0,2.0,90,0.00,,,0.00,0.00,VWS V14.01,2013-03-25 00:59:00,
2013-03-24 21:05:00,33.2,30.9,29.67,SW,232,0.0,1.0,91,0.00,,,0.00,0.00,VWS V14.01,2013-03-25 01:05:00,
2013-03-24 21:10:00,33.2,30.9,29.66,SW,232,0.0,1.0,91,0.00,,,0.00,0.00,VWS V14.01,2013-03-25 01:10:00,
2013-03-24 21:15:00,33.1,30.8,29.66,SW,232,0.0,0.0,91,0.00,,,0.00,0.00,VWS V14.01,2013-03-25 01:15:00,
2013-03-24 21:20:00,33.1,30.8,29.66,SW,232,0.0,0.0,91,0.00,,,0.00,0.00,VWS V14.01,2013-03-25 01:20:00,
2013-03-24 21:25:00,33.1,30.8,29.66,SW,232,0.0,0.0,91,0.00,,,0.00,0.00,VWS V14.01,2013-03-25 01:25:00,
2013-03-24 21:30:00,33.1,31.0,29.66,SW,232,0.0,0.0,92,0.00,,,0.00,0.00,VWS V14.01,2013-03-25 01:30:00,
2013-03-24 21:35:00,33.1,31.0,29.66,SW,232,0.0,0.0,92,0.00,,,0.00,0.00,VWS V14.01,2013-03-25 01:35:00,
2013-03-24 21:40:00,33.1,31.0,29.66,SW,232,0.0,0.0,92,0.00,,,0.00,0.00,VWS V14.01,2013-03-25 01:40:00,
2013-03-24 21:45:00,33.1,31.0,29.66,SW,232,0.0,0.0,92,0.00,,,0.00,0.00,VWS V14.01,2013-03-25 01:45:00,
2013-03-24 21:50:00,33.1,31.0,29.67,SW,232,0.0,1.0,92,0.00,,,0.00,0.00,VWS V14.01,2013-03-25 01:50:00,
2013-03-24 21:55:00,33.2,31.1,29.67,SW,232,0.0,1.0,92,0.00,,,0.00,0.00,VWS V14.01,2013-03-25 01:55:00,
2013-03-24 22:00:00,33.2,31.1,29.67,SW,232,3.0,3.0,92,0.00,,,0.00,0.00,VWS V14.01,2013-03-25 02:00:00,
2013-03-24 22:05:00,33.2,31.4,29.67,SSW,205,0.0,0.0,93,0.00,,,0.00,0.00,VWS V14.01,2013-03-25 02:05:00,
2013-03-24 22:10:00,33.2,31.4,29.66,SSW,205,0.0,0.0,93,0.00,,,0.00,0.00,VWS V14.01,2013-03-25 02:10:00,
2013-03-24 22:15:00,33.1,31.3,29.66,SSW,205,0.0,0.0,93,0.00,,,0.00,0.00,VWS V14.01,2013-03-25 02:15:00,
2013-03-24 22:20:00,33.1,31.3,29.66,SSW,205,0.0,1.0,93,0.00,,,0.00,0.00,VWS V14.01,2013-03-25 02:20:00,
2013-03-24 22:25:00,33.1,31.3,29.67,SSW,205,0.0,1.0,93,0.00,,,0.00,0.00,VWS V14.01,2013-03-25 02:25:00,
2013-03-24 22:30:00,33.1,31.3,29.67,SSW,205,0.0,0.0,93,0.00,,,0.00,0.00,VWS V14.01,2013-03-25 02:30:00,
2013-03-24 22:36:00,33.1,31.3,29.66,SW,214,0.0,0.0,93,0.00,,,0.00,0.00,VWS V14.01,2013-03-25 02:36:00,
2013-03-24 22:41:00,33.1,31.3,29.66,SW,214,0.0,0.0,93,0.00,,,0.00,0.00,VWS V14.01,2013-03-25 02:41:00,
2013-03-24 22:46:00,33.0,31.2,29.66,SW,214,0.0,0.0,93,0.00,,,0.00,0.00,VWS V14.01,2013-03-25 02:46:00,
2013-03-24 22:51:00,33.0,31.2,29.66,SW,214,0.0,0.0,93,0.00,,,0.00,0.00,VWS V14.01,2013-03-25 02:51:00,
2013-03-24 22:56:00,33.0,31.2,29.66,SW,214,0.0,0.0,93,0.00,,,0.00,0.00,VWS V14.01,2013-03-25 02:56:00,
2013-03-24 23:01:00,33.0,31.5,29.66,SW,214,0.0,0.0,94,0.00,,,0.00,0.00,VWS V14.01,2013-03-25 03:01:00,
2013-03-24 23:07:00,33.0,31.5,29.65,SW,214,0.0,0.0,94,0.00,,,0.00,0.00,VWS V14.01,2013-03-25 03:07:00,
2013-03-24 23:12:00,33.0,31.2,29.65,SW,214,0.0,0.0,93,0.00,,,0.00,0.00,VWS V14.01,2013-03-25 03:12:00,
2013-03-24 23:17:00,32.9,31.4,29.66,SW,214,0.0,0.0,94,0.00,,,0.00,0.00,VWS V14.01,2013-03-25 03:17:00,
2013-03-24 23:22:00,32.9,31.4,29.65,SW,214,0.0,0.0,94,0.00,,,0.00,0.00,VWS V14.01,2013-03-25 03:22:00,
2013-03-24 23:27:00,32.9,31.4,29.65,SW,214,0.0,0.0,94,0.00,,,0.00,0.00,VWS V14.01,2013-03-25 03:27:00,
2013-03-24 23:32:00,32.9,31.4,29.64,SW,214,0.0,0.0,94,0.00,,,0.00,0.00,VWS V14.01,2013-03-25 03:32:00,
2013-03-24 23:37:00,32.9,31.4,29.63,SW,214,0.0,0.0,94,0.00,,,0.00,0.00,VWS V14.01,2013-03-25 03:37:00,
2013-03-24 23:42:00,32.9,31.4,29.63,SW,214,0.0,0.0,94,0.00,,,0.00,0.00,VWS V14.01,2013-03-25 03:42:00,
2013-03-24 23:47:00,32.9,31.4,29.63,SW,214,0.0,0.0,94,0.00,,,0.00,0.00,VWS V14.01,2013-03-25 03:47:00,
2013-03-24 23:52:00,32.9,31.4,29.62,SW,214,0.0,0.0,94,0.00,,,0.00,0.00,VWS V14.01,2013-03-25 03:52:00,
2013-03-24 23:57:00,32.9,31.4,29.62,SW,214,0.0,0.0,94,0.00,,,0.00,0.00,VWS V14.01,2013-03-25 03:57:00,